LOT7AY EPKK-EPSY

Flight info

Callsign LOT7AY
Flight time 0h 52m
Altitude 29000
Route POBOK DCT UDROV
Aircraft B38M/M-SDE1FGHILORVWXY/HB1

Departure

Time 2026-04-25 08:58
Airport Kraków John Paul II International Airport (EPKK)

Arrival

Time 2026-04-25 09:50
Airport Olsztyn-Mazury Airport (EPSY)
Time Latitude Longitude Altitude Speed Heading
2026-04-25 08:14 50.07331 19.80105 802 ft 0 kts 167°
2026-04-25 08:35 50.07331 19.80108 803 ft 0 kts 167°
2026-04-25 08:45 50.07344 19.80103 802 ft 2 kts 167°
2026-04-25 08:45 50.07360 19.80098 802 ft 2 kts 167°
2026-04-25 08:45 50.07376 19.80092 802 ft 2 kts 165°
2026-04-25 08:45 50.07391 19.80085 802 ft 2 kts 158°
2026-04-25 08:46 50.07404 19.80070 802 ft 2 kts 100°
2026-04-25 08:46 50.07404 19.80059 802 ft 0 kts 82°
2026-04-25 08:46 50.07405 19.80060 802 ft 0 kts 82°
2026-04-25 08:49 50.07407 19.80082 802 ft 4 kts 81°
2026-04-25 08:50 50.07412 19.80127 802 ft 2 kts 78°
2026-04-25 08:50 50.07416 19.80155 802 ft 6 kts 77°
2026-04-25 08:50 50.07423 19.80200 802 ft 0 kts 76°
2026-04-25 08:50 50.07431 19.80245 802 ft 7 kts 76°
2026-04-25 08:51 50.07436 19.80285 802 ft 1 kts 80°
2026-04-25 08:51 50.07438 19.80303 802 ft 3 kts 79°
2026-04-25 08:51 50.07442 19.80327 802 ft 3 kts 77°
2026-04-25 08:51 50.07460 19.80367 802 ft 7 kts 36°
2026-04-25 08:52 50.07529 19.80404 802 ft 8 kts 13°
2026-04-25 08:52 50.07591 19.80418 802 ft 11 kts 353°
2026-04-25 08:52 50.07681 19.80391 802 ft 7 kts 347°
2026-04-25 08:52 50.07752 19.80367 802 ft 13 kts 348°
2026-04-25 08:53 50.07826 19.80343 803 ft 11 kts 348°
2026-04-25 08:53 50.07846 19.80336 803 ft 0 kts 348°
2026-04-25 08:55 50.07847 19.80336 803 ft 2 kts 348°
2026-04-25 08:55 50.07905 19.80316 802 ft 13 kts 348°
2026-04-25 08:55 50.07998 19.80271 802 ft 16 kts 318°
2026-04-25 08:55 50.08003 19.80133 803 ft 16 kts 258°
2026-04-25 08:56 50.07981 19.79970 803 ft 16 kts 258°
2026-04-25 08:56 50.07978 19.79951 803 ft 0 kts 258°
2026-04-25 08:57 50.07971 19.79901 802 ft 26 kts 258°
2026-04-25 08:57 50.07874 19.79200 803 ft 104 kts 258°
2026-04-25 08:57 50.07676 19.77779 871 ft 158 kts 258°
2026-04-25 08:57 50.07433 19.75967 1377 ft 180 kts 259°
2026-04-25 08:58 50.07178 19.74200 2710 ft 159 kts 258°
2026-04-25 08:58 50.06924 19.72427 3226 ft 179 kts 258°
2026-04-25 08:58 50.06637 19.70418 3599 ft 201 kts 259°
2026-04-25 08:58 50.06317 19.68184 3962 ft 222 kts 261°
2026-04-25 08:59 50.06454 19.65781 4544 ft 226 kts 291°
2026-04-25 08:59 50.07396 19.63841 5332 ft 230 kts 319°
2026-04-25 08:59 50.08846 19.62783 6072 ft 234 kts 343°
2026-04-25 08:59 50.10438 19.62214 6804 ft 235 kts 344°
2026-04-25 09:00 50.12036 19.61662 7486 ft 237 kts 346°
2026-04-25 09:00 50.13703 19.61753 7680 ft 246 kts 11°
2026-04-25 09:00 50.15265 19.62924 7904 ft 253 kts 23°
2026-04-25 09:00 50.16800 19.64260 8578 ft 259 kts 33°
2026-04-25 09:01 50.18071 19.66311 9411 ft 263 kts 40°
2026-04-25 09:01 50.19397 19.68352 10039 ft 275 kts 38°
2026-04-25 09:01 50.20842 19.70446 10433 ft 293 kts 37°
2026-04-25 09:01 50.22411 19.72651 10788 ft 312 kts 37°
2026-04-25 09:02 50.24053 19.74927 11237 ft 327 kts 36°
2026-04-25 09:02 50.25781 19.77303 11913 ft 333 kts 36°
2026-04-25 09:02 50.27539 19.79705 12712 ft 338 kts 36°
2026-04-25 09:02 50.29324 19.82139 13503 ft 342 kts 36°
2026-04-25 09:03 50.31127 19.84591 14273 ft 346 kts 35°
2026-04-25 09:03 50.32951 19.87079 15033 ft 351 kts 35°
2026-04-25 09:03 50.34802 19.89601 15774 ft 356 kts 35°
2026-04-25 09:03 50.36678 19.92164 16513 ft 361 kts 35°
2026-04-25 09:04 50.38593 19.94779 16888 ft 367 kts 36°
2026-04-25 09:04 50.40513 19.97410 16981 ft 366 kts 36°
2026-04-25 09:04 50.42431 20.00037 16986 ft 366 kts 35°
2026-04-25 09:04 50.44356 20.02634 16984 ft 365 kts 35°
2026-04-25 09:05 50.46275 20.05252 16986 ft 366 kts 35°
2026-04-25 09:05 50.48191 20.07884 16987 ft 366 kts 36°
2026-04-25 09:05 50.50104 20.10524 16984 ft 366 kts 36°
2026-04-25 09:05 50.52005 20.13151 16985 ft 366 kts 36°
2026-04-25 09:06 50.53915 20.15794 16989 ft 366 kts 36°
2026-04-25 09:06 50.55823 20.18438 16977 ft 366 kts 36°
2026-04-25 09:06 50.57843 20.20796 16965 ft 356 kts 20°
2026-04-25 09:06 50.60162 20.21951 16978 ft 348 kts
2026-04-25 09:07 50.62519 20.22603 16966 ft 349 kts
2026-04-25 09:07 50.64946 20.23219 16970 ft 349 kts
2026-04-25 09:07 50.67344 20.23789 16971 ft 349 kts
2026-04-25 09:07 50.69711 20.24318 17162 ft 349 kts
2026-04-25 09:08 50.72121 20.24860 17084 ft 349 kts
2026-04-25 09:08 50.74517 20.25393 17335 ft 349 kts
2026-04-25 09:08 50.76937 20.25925 17739 ft 353 kts
2026-04-25 09:08 50.79376 20.26459 18128 ft 356 kts
2026-04-25 09:09 50.81834 20.26995 18487 ft 358 kts
2026-04-25 09:09 50.84308 20.27536 18828 ft 360 kts
2026-04-25 09:09 50.86796 20.28080 19177 ft 362 kts
2026-04-25 09:09 50.89298 20.28628 19523 ft 364 kts
2026-04-25 09:10 50.91809 20.29179 19874 ft 365 kts
2026-04-25 09:10 50.93481 20.29545 20110 ft 367 kts
2026-04-25 09:10 50.96014 20.30101 20465 ft 368 kts
2026-04-25 09:10 50.98561 20.30661 20844 ft 370 kts
2026-04-25 09:11 51.03673 20.31786 21594 ft 374 kts
2026-04-25 09:11 51.06254 20.32356 21972 ft 376 kts
2026-04-25 09:11 51.08852 20.32929 22349 ft 378 kts
2026-04-25 09:12 51.11467 20.33507 22742 ft 380 kts
2026-04-25 09:12 51.14097 20.34089 23132 ft 383 kts
2026-04-25 09:12 51.16742 20.34675 23527 ft 385 kts
2026-04-25 09:12 51.19393 20.35263 23856 ft 388 kts
2026-04-25 09:13 51.22070 20.35858 24224 ft 390 kts
2026-04-25 09:13 51.24756 20.36455 24568 ft 392 kts
2026-04-25 09:13 51.27461 20.37057 24912 ft 394 kts
2026-04-25 09:13 51.30177 20.37662 25264 ft 396 kts
2026-04-25 09:14 51.32916 20.38273 25623 ft 398 kts
2026-04-25 09:14 51.35659 20.38886 25985 ft 400 kts
2026-04-25 09:14 51.38421 20.39504 26342 ft 402 kts
2026-04-25 09:14 51.41193 20.40125 26705 ft 402 kts
2026-04-25 09:15 51.43958 20.40745 27086 ft 401 kts
2026-04-25 09:15 51.46726 20.41366 27485 ft 400 kts
2026-04-25 09:15 51.49468 20.41982 27868 ft 399 kts
2026-04-25 09:15 51.52212 20.42600 28260 ft 398 kts
2026-04-25 09:16 51.54954 20.43218 28653 ft 397 kts
2026-04-25 09:16 51.57694 20.43835 28912 ft 398 kts
2026-04-25 09:16 51.63150 20.45068 28914 ft 395 kts
2026-04-25 09:17 51.71315 20.46919 28894 ft 395 kts
2026-04-25 09:18 51.76748 20.48154 28888 ft 395 kts
2026-04-25 09:18 51.82186 20.49394 28882 ft 395 kts
2026-04-25 09:19 51.87632 20.50638 28884 ft 395 kts
2026-04-25 09:19 51.93070 20.51883 28892 ft 395 kts
2026-04-25 09:20 51.98501 20.53129 28885 ft 394 kts
2026-04-25 09:20 52.03935 20.54381 28881 ft 395 kts
2026-04-25 09:21 52.09370 20.55635 28875 ft 395 kts
2026-04-25 09:21 52.14808 20.56892 28868 ft 395 kts
2026-04-25 09:22 52.20254 20.58154 28883 ft 395 kts
2026-04-25 09:22 52.25680 20.59416 28860 ft 395 kts
2026-04-25 09:23 52.31086 20.60676 28864 ft 395 kts
2026-04-25 09:23 52.36562 20.61955 28845 ft 395 kts
2026-04-25 09:24 52.41964 20.63220 28859 ft 395 kts
2026-04-25 09:24 52.47399 20.64495 28861 ft 394 kts
2026-04-25 09:25 52.52815 20.65770 28856 ft 394 kts
2026-04-25 09:25 52.58249 20.67052 28854 ft 394 kts
2026-04-25 09:26 52.63677 20.68336 28848 ft 394 kts
2026-04-25 09:26 52.69104 20.69621 28878 ft 393 kts
2026-04-25 09:27 52.74499 20.70905 28820 ft 392 kts
2026-04-25 09:27 52.79907 20.72193 28821 ft 392 kts
2026-04-25 09:28 52.85307 20.73484 28811 ft 389 kts
2026-04-25 09:28 52.87925 20.74111 28831 ft 372 kts
2026-04-25 09:28 52.90438 20.74713 28711 ft 361 kts
2026-04-25 09:28 52.92929 20.75309 28237 ft 364 kts
2026-04-25 09:29 52.95451 20.75912 27807 ft 368 kts
2026-04-25 09:29 52.97981 20.76522 27374 ft 369 kts
2026-04-25 09:29 53.00519 20.77135 26962 ft 368 kts
2026-04-25 09:29 53.03045 20.77744 26524 ft 365 kts
2026-04-25 09:30 53.05545 20.78347 26107 ft 362 kts
2026-04-25 09:30 53.08030 20.78947 25701 ft 359 kts
2026-04-25 09:30 53.10496 20.79543 25295 ft 357 kts
2026-04-25 09:30 53.12945 20.80136 24880 ft 355 kts
2026-04-25 09:31 53.15382 20.80726 24493 ft 353 kts
2026-04-25 09:31 53.17804 20.81314 24134 ft 350 kts
2026-04-25 09:31 53.20206 20.81896 23745 ft 349 kts
2026-04-25 09:31 53.22588 20.82182 23308 ft 339 kts 348°
2026-04-25 09:32 53.24818 20.81202 22844 ft 327 kts 329°
2026-04-25 09:32 53.26632 20.79133 22524 ft 316 kts 314°
2026-04-25 09:32 53.28059 20.76337 22214 ft 310 kts 306°
2026-04-25 09:32 53.29303 20.73490 21884 ft 306 kts 304°
2026-04-25 09:33 53.30486 20.70570 21556 ft 302 kts 302°
2026-04-25 09:33 53.31616 20.67634 21244 ft 298 kts 301°
2026-04-25 09:33 53.32737 20.64626 20933 ft 304 kts 301°
2026-04-25 09:33 53.33836 20.61627 20617 ft 308 kts 301°
2026-04-25 09:34 53.34950 20.58553 20302 ft 309 kts 300°
2026-04-25 09:34 53.36055 20.55476 19990 ft 308 kts 300°
2026-04-25 09:34 53.37155 20.52399 19680 ft 307 kts 300°
2026-04-25 09:34 53.38241 20.49349 19371 ft 306 kts 300°
2026-04-25 09:35 53.39329 20.46288 19054 ft 305 kts 300°
2026-04-25 09:35 53.40411 20.43239 18743 ft 304 kts 300°
2026-04-25 09:35 53.41487 20.40203 18437 ft 302 kts 300°
2026-04-25 09:35 53.42558 20.37177 18137 ft 301 kts 300°
2026-04-25 09:36 53.43625 20.34157 17796 ft 300 kts 300°
2026-04-25 09:36 53.44684 20.31157 17478 ft 298 kts 300°
2026-04-25 09:36 53.45734 20.28180 17182 ft 296 kts 299°
2026-04-25 09:36 53.46778 20.25216 16893 ft 294 kts 299°
2026-04-25 09:37 53.47814 20.22272 16622 ft 292 kts 299°
2026-04-25 09:37 53.48841 20.19347 16330 ft 290 kts 299°
2026-04-25 09:37 53.49890 20.16466 16013 ft 289 kts 305°
2026-04-25 09:37 53.51411 20.14271 15611 ft 296 kts 330°
2026-04-25 09:38 53.53458 20.13680 15316 ft 309 kts 359°
2026-04-25 09:38 53.55518 20.14918 14985 ft 326 kts 26°
2026-04-25 09:38 53.57093 20.17763 14574 ft 346 kts 56°
2026-04-25 09:38 53.57755 20.21730 14003 ft 364 kts 85°
2026-04-25 09:39 53.57273 20.25952 13320 ft 375 kts 116°
2026-04-25 09:39 53.55709 20.29413 12673 ft 373 kts 144°
2026-04-25 09:39 53.53501 20.31514 12266 ft 358 kts 167°
2026-04-25 09:40 53.49276 20.35418 12002 ft 349 kts 133°
2026-04-25 09:40 53.48066 20.38896 11771 ft 345 kts 107°
2026-04-25 09:40 53.47740 20.42837 11412 ft 339 kts 85°
2026-04-25 09:40 53.48199 20.46652 10999 ft 330 kts 62°
2026-04-25 09:41 53.49368 20.49876 10634 ft 319 kts 43°
2026-04-25 09:41 53.50862 20.52596 10282 ft 316 kts 39°
2026-04-25 09:41 53.52385 20.55214 10043 ft 310 kts 38°
2026-04-25 09:41 53.53888 20.57703 9911 ft 300 kts 37°
2026-04-25 09:42 53.55373 20.60099 9821 ft 291 kts 35°
2026-04-25 09:42 53.56889 20.62334 9499 ft 292 kts 34°
2026-04-25 09:42 53.58434 20.64589 9017 ft 295 kts 34°
2026-04-25 09:42 53.59990 20.66860 8623 ft 296 kts 34°
2026-04-25 09:43 53.61545 20.69130 8254 ft 296 kts 34°
2026-04-25 09:43 53.63094 20.71394 7896 ft 295 kts 35°
2026-04-25 09:43 53.64645 20.73662 7533 ft 295 kts 35°
2026-04-25 09:43 53.66194 20.75930 7165 ft 295 kts 35°
2026-04-25 09:44 53.67742 20.78197 6823 ft 294 kts 35°
2026-04-25 09:44 53.69261 20.80426 6751 ft 283 kts 35°
2026-04-25 09:44 53.70706 20.82547 6788 ft 269 kts 35°
2026-04-25 09:44 53.72063 20.84581 6791 ft 256 kts 40°
2026-04-25 09:45 53.72979 20.87125 6713 ft 255 kts 71°
2026-04-25 09:45 53.73084 20.90093 6731 ft 257 kts 100°
2026-04-25 09:45 53.72540 20.92979 6618 ft 259 kts 112°
2026-04-25 09:45 53.71870 20.95786 6271 ft 264 kts 113°
2026-04-25 09:46 53.71163 20.98689 5797 ft 271 kts 114°
2026-04-25 09:46 53.70375 21.01624 5283 ft 277 kts 124°
2026-04-25 09:46 53.68983 21.03745 4791 ft 268 kts 160°
2026-04-25 09:46 53.67205 21.04250 4299 ft 257 kts 191°
2026-04-25 09:47 53.65504 21.03523 3853 ft 251 kts 202°
2026-04-25 09:47 53.63854 21.02637 3545 ft 246 kts 202°
2026-04-25 09:47 53.62273 21.01775 3477 ft 232 kts 202°
2026-04-25 09:47 53.60786 21.00962 3378 ft 222 kts 202°
2026-04-25 09:48 53.59303 21.00197 2980 ft 226 kts 200°
2026-04-25 09:48 53.57771 20.99513 2574 ft 228 kts 201°
2026-04-25 09:48 53.56302 20.98675 2351 ft 214 kts 204°
2026-04-25 09:48 53.55032 20.97865 2131 ft 177 kts 207°
2026-04-25 09:49 53.54013 20.97044 1905 ft 151 kts 208°
2026-04-25 09:49 53.53077 20.96520 1653 ft 138 kts 199°
2026-04-25 09:49 53.52173 20.96088 1288 ft 132 kts 206°
2026-04-25 09:49 53.51297 20.95523 1032 ft 135 kts 201°
2026-04-25 09:50 53.50370 20.95016 780 ft 142 kts 201°
2026-04-25 09:50 53.49489 20.94513 588 ft 127 kts 205°
2026-04-25 09:50 53.48702 20.94054 470 ft 103 kts 198°
2026-04-25 09:50 53.48343 20.93860 475 ft 23 kts 198°
2026-04-25 09:51 53.48260 20.93813 474 ft 15 kts 199°
2026-04-25 09:51 53.48134 20.93738 473 ft 18 kts 199°
2026-04-25 09:51 53.47993 20.93659 465 ft 26 kts 198°
2026-04-25 09:51 53.47809 20.93554 452 ft 13 kts 197°
2026-04-25 09:52 53.47687 20.93492 448 ft 22 kts 199°
2026-04-25 09:52 53.47535 20.93401 450 ft 25 kts 198°
2026-04-25 09:52 53.47407 20.93333 451 ft 13 kts 198°
2026-04-25 09:52 53.47322 20.93287 451 ft 14 kts 198°
2026-04-25 09:53 53.47217 20.93228 452 ft 18 kts 199°
2026-04-25 09:53 53.47154 20.93203 452 ft 3 kts 188°
2026-04-25 09:53 53.47138 20.93193 452 ft 2 kts 218°
2026-04-25 09:53 53.47135 20.93175 452 ft 2 kts 278°
2026-04-25 09:54 53.47166 20.93171 452 ft 9 kts 33°
2026-04-25 09:54 53.47253 20.93254 451 ft 18 kts 16°
2026-04-25 09:54 53.47364 20.93309 451 ft 19 kts 18°
2026-04-25 09:54 53.47501 20.93385 450 ft 21 kts 18°
2026-04-25 09:55 53.47650 20.93468 449 ft 24 kts 19°
2026-04-25 09:55 53.47790 20.93548 451 ft 15 kts 19°
2026-04-25 09:55 53.47887 20.93602 456 ft 14 kts 18°
2026-04-25 09:55 53.47977 20.93651 463 ft 12 kts 18°
2026-04-25 09:56 53.48037 20.93685 469 ft 7 kts 18°
2026-04-25 09:56 53.48078 20.93707 472 ft 6 kts 18°
2026-04-25 09:56 53.48129 20.93735 471 ft 12 kts 18°
2026-04-25 09:56 53.48248 20.93801 473 ft 24 kts 18°
2026-04-25 09:57 53.48372 20.93868 474 ft 33 kts 18°
2026-04-25 09:57 53.48583 20.93994 470 ft 18 kts 21°
2026-04-25 09:57 53.48634 20.94023 469 ft 14 kts 18°
2026-04-25 09:57 53.48731 20.94088 470 ft 16 kts 31°
2026-04-25 09:58 53.48787 20.94244 468 ft 16 kts 93°
2026-04-25 09:58 53.48776 20.94370 469 ft 7 kts 81°
2026-04-25 09:58 53.48792 20.94402 467 ft 3 kts 31°
2026-04-25 09:58 53.48796 20.94417 468 ft 1 kts 85°
2026-04-25 09:59 53.48784 20.94477 467 ft 9 kts 109°
2026-04-25 09:59 53.48777 20.94515 469 ft 0 kts 109°